Overview Statistics Trail Chart Weather Telemetry Raw packets
 

This is the latest recevied weather packets stored in our database for station/object N5CSU. If no packets are shown the sender has not sent any weather packets the latest 10 day(s).

<< 69 70 71 72 73 74 75 >>
Time Temp. Humidity Pressure Rain* Wind** Luminosity Snow
1788127898 38.33° C 34% 1012.9 hPa 0 mm - 68 W/m² -
1788127594 38.33° C 33% 1013.1 hPa 0 mm - 71 W/m² -
1788127292 38.33° C 34% 1013.1 hPa 0 mm - 144 W/m² -
1788126992 38.33° C 33% 1013.1 hPa 0 mm - 20 W/m² -
1788126686 37.78° C 35% 1013 hPa 0 mm - 29 W/m² -
1788126381 37.78° C 33% 1013.2 hPa 0 mm - 22 W/m² -
1788126076 37.78° C 32% 1013.2 hPa 0 mm - 20 W/m² -
1788125775 37.78° C 33% 1013.2 hPa 0 mm - 20 W/m² -
1788125471 37.78° C 33% 1013.3 hPa 0 mm - 17 W/m² -
1788125166 37.78° C 34% 1013.5 hPa 0 mm - 17 W/m² -
1788124861 37.78° C 34% 1013.6 hPa 0 mm - 21 W/m² -
1788124555 37.78° C 34% 1013.3 hPa 0 mm - 22 W/m² -
1788124250 37.78° C 36% 1013.6 hPa 0 mm - 21 W/m² -
1788123944 37.78° C 34% 1013.6 hPa 0 mm - 18 W/m² -
1788123638 37.22° C 35% 1013.6 hPa 0 mm - 24 W/m² -
1788123336 36.67° C 37% 1013.5 hPa 0 mm - 28 W/m² -
1788123032 37.78° C 35% 1013.9 hPa 0 mm - 17 W/m² -
1788122731 38.33° C 35% 1013.9 hPa 0 mm - 45 W/m² -
1788122447 37.78° C 35% 1013.9 hPa 0 mm - 29 W/m² -
1788122127 37.78° C 34% 1013.9 hPa 0 mm - 26 W/m² -
1788121822 37.78° C 36% 1014 hPa 0 mm - 27 W/m² -
1788121521 37.22° C 36% 1014.2 hPa 0 mm - 23 W/m² -
1788121217 37.22° C 36% 1014.1 hPa 0 mm - 23 W/m² -
1788120916 37.22° C 36% 1014.3 hPa 0 mm - 28 W/m² -
1788120612 37.78° C 35% 1014.5 hPa 0 mm - 20 W/m² -

* Rain latest hour (hover to see other rain measurements)
** Current wind speed in m/s (hover to see current wind gust speed)